Location: Unspecified
(43.4354°N, 0.0000°E)
Time: 03:22:12
(UTC+00:00)

Tiros 1 despin weight - Pass Details

Date: 02 July 2019
Orbit: 594 x 643 km, 48.2° (Epoch: 22 July)

Event Time Altitude Azimuth Distance (km) Brightness Sun altitude
Rises 23:23:13 0° 292° (WNW) 2,863 ? -22.9°
Reaches altitude 10° 23:25:33 10° 295° (WNW) 1,950 ? -23.0°
Maximum altitude 23:30:00 66° 18° (NNE) 657 ? -23.1°
Enters shadow 23:31:36 37° 87° (E) 933 ? -23.1°
